Time,TemperatureF,DewpointF,PressureIn,WindDirection,WindDirectionDegrees,WindSpeedMPH,WindSpeedGustMPH,Humidity,HourlyPrecipIn,Conditions,Clouds,dailyrainin,SolarRadiationWatts/m^2,SoftwareType,DateUTC
2013-01-28 00:02:00,25.0,20.0,-100.00,SW,234,13.0,17.0,79,-99.99,,,-99.99,-0.100000,,2013-01-28 07:02:00,
2013-01-28 00:11:00,25.0,20.0,-100.00,WSW,237,13.0,18.0,79,-99.99,,,-99.99,-0.100000,,2013-01-28 07:11:00,
2013-01-28 00:31:00,25.0,19.0,-100.00,SW,236,13.0,19.0,79,-99.99,,,-99.99,0.000000,,2013-01-28 07:31:00,
2013-01-28 00:41:00,25.0,19.0,-100.00,SW,234,13.0,18.0,79,-99.99,,,-99.99,-0.100000,,2013-01-28 07:41:00,
2013-01-28 00:51:00,25.0,19.0,-100.00,WSW,238,12.0,17.0,79,-99.99,,,-99.99,0.000000,,2013-01-28 07:51:00,
2013-01-28 01:01:00,25.0,19.0,-100.00,WSW,240,12.0,17.0,79,-99.99,,,-99.99,0.000000,,2013-01-28 08:01:00,
2013-01-28 01:11:00,25.0,19.0,-100.00,WSW,239,10.0,15.0,79,-99.99,,,-99.99,-0.100000,,2013-01-28 08:11:00,
2013-01-28 01:21:00,24.0,19.0,-100.00,WSW,239,13.0,19.0,79,-99.99,,,-99.99,-0.100000,,2013-01-28 08:21:00,
2013-01-28 01:31:00,24.0,19.0,-100.00,WSW,241,12.0,16.0,80,-99.99,,,-99.99,-0.100000,,2013-01-28 08:31:00,
2013-01-28 01:41:00,24.0,19.0,-100.00,WSW,245,14.0,20.0,80,-99.99,,,-99.99,0.000000,,2013-01-28 08:41:00,
2013-01-28 01:52:00,24.0,19.0,-100.00,WSW,247,14.0,22.0,80,-99.99,,,-99.99,-0.100000,,2013-01-28 08:52:00,
2013-01-28 02:01:00,24.0,19.0,-100.00,WSW,248,14.0,21.0,80,-99.99,,,-99.99,-0.100000,,2013-01-28 09:01:00,
2013-01-28 02:11:00,24.0,19.0,-100.00,WSW,246,13.0,18.0,80,-99.99,,,-99.99,-0.100000,,2013-01-28 09:11:00,
2013-01-28 02:21:00,24.0,19.0,-100.00,WSW,252,15.0,20.0,81,-99.99,,,-99.99,-0.100000,,2013-01-28 09:21:00,
2013-01-28 02:31:00,24.0,19.0,-100.00,WSW,255,14.0,21.0,81,-99.99,,,-99.99,-0.100000,,2013-01-28 09:31:00,
2013-01-28 02:41:00,23.0,19.0,-100.00,WSW,253,10.0,14.0,82,-99.99,,,-99.99,-0.100000,,2013-01-28 09:41:00,
2013-01-28 02:51:00,23.0,19.0,-100.00,West,263,8.0,11.0,83,-99.99,,,-99.99,-0.100000,,2013-01-28 09:51:00,
2013-01-28 03:01:00,23.0,19.0,-100.00,West,262,9.0,13.0,83,-99.99,,,-99.99,-0.100000,,2013-01-28 10:01:00,
2013-01-28 03:11:00,23.0,19.0,-100.00,WSW,256,10.0,15.0,83,-99.99,,,-99.99,-0.100000,,2013-01-28 10:11:00,
2013-01-28 03:21:00,23.0,19.0,-100.00,WSW,258,12.0,17.0,83,-99.99,,,-99.99,-0.100000,,2013-01-28 10:21:00,
2013-01-28 03:31:00,23.0,19.0,-100.00,West,262,11.0,14.0,83,-99.99,,,-99.99,-0.100000,,2013-01-28 10:31:00,
2013-01-28 03:41:00,23.0,19.0,-100.00,West,260,14.0,20.0,84,-99.99,,,-99.99,0.000000,,2013-01-28 10:41:00,
2013-01-28 03:51:00,23.0,19.0,-100.00,WSW,250,12.0,16.0,83,-99.99,,,-99.99,-0.100000,,2013-01-28 10:51:00,
2013-01-28 04:01:00,23.0,19.0,-100.00,WSW,244,12.0,16.0,83,-99.99,,,-99.99,-0.100000,,2013-01-28 11:01:00,
2013-01-28 04:11:00,23.0,19.0,-100.00,WSW,246,11.0,16.0,83,-99.99,,,-99.99,-0.100000,,2013-01-28 11:11:00,
2013-01-28 04:21:00,23.0,18.0,-100.00,WSW,246,11.0,16.0,81,-99.99,,,-99.99,-0.100000,,2013-01-28 11:21:00,
2013-01-28 04:32:00,23.0,19.0,-100.00,WSW,245,11.0,14.0,82,-99.99,,,-99.99,-0.100000,,2013-01-28 11:32:00,
2013-01-28 04:41:00,24.0,19.0,-100.00,WSW,246,12.0,17.0,82,-99.99,,,-99.99,-0.100000,,2013-01-28 11:41:00,
2013-01-28 04:52:00,24.0,19.0,-100.00,WSW,240,10.0,14.0,81,-99.99,,,-99.99,-0.100000,,2013-01-28 11:52:00,
2013-01-28 05:03:00,24.0,19.0,-100.00,WSW,239,10.0,15.0,81,-99.99,,,-99.99,-0.100000,,2013-01-28 12:03:00,
2013-01-28 05:11:00,24.0,19.0,-100.00,SW,229,9.0,14.0,80,-99.99,,,-99.99,-0.100000,,2013-01-28 12:11:00,
2013-01-28 05:22:00,24.0,19.0,-100.00,SW,227,9.0,12.0,80,-99.99,,,-99.99,-0.100000,,2013-01-28 12:22:00,
2013-01-28 05:32:00,24.0,19.0,-100.00,WSW,237,9.0,14.0,81,-99.99,,,-99.99,-0.100000,,2013-01-28 12:32:00,
2013-01-28 05:41:00,24.0,19.0,-100.00,SW,232,8.0,12.0,81,-99.99,,,-99.99,0.000000,,2013-01-28 12:41:00,
2013-01-28 05:52:00,24.0,19.0,-100.00,WSW,243,11.0,15.0,81,-99.99,,,-99.99,-0.100000,,2013-01-28 12:52:00,
2013-01-28 06:02:00,24.0,19.0,-100.00,WSW,241,9.0,12.0,82,-99.99,,,-99.99,-0.100000,,2013-01-28 13:02:00,
2013-01-28 06:11:00,24.0,19.0,-100.00,WSW,243,10.0,14.0,82,-99.99,,,-99.99,-0.100000,,2013-01-28 13:11:00,
2013-01-28 06:22:00,24.0,19.0,-100.00,West,264,11.0,13.0,82,-99.99,,,-99.99,-0.100000,,2013-01-28 13:22:00,
2013-01-28 06:32:00,23.0,19.0,-100.00,WSW,254,9.0,12.0,83,-99.99,,,-99.99,-0.100000,,2013-01-28 13:32:00,
2013-01-28 06:41:00,23.0,19.0,-100.00,WSW,251,9.0,13.0,82,-99.99,,,-99.99,-0.100000,,2013-01-28 13:41:00,
2013-01-28 06:52:00,23.0,19.0,-100.00,WSW,250,11.0,14.0,83,-99.99,,,-99.99,-0.100000,,2013-01-28 13:52:00,
2013-01-28 07:02:00,23.0,19.0,-100.00,WSW,252,9.0,12.0,83,-99.99,,,-99.99,-0.100000,,2013-01-28 14:02:00,
2013-01-28 07:11:00,23.0,19.0,-100.00,WSW,256,9.0,14.0,84,-99.99,,,-99.99,-0.100000,,2013-01-28 14:11:00,
2013-01-28 07:21:00,23.0,19.0,-100.00,WSW,244,7.0,10.0,84,-99.99,,,-99.99,-0.100000,,2013-01-28 14:21:00,
2013-01-28 07:32:00,23.0,19.0,-100.00,WSW,245,6.0,9.0,85,-99.99,,,-99.99,0.000000,,2013-01-28 14:32:00,
2013-01-28 07:42:00,23.0,19.0,-100.00,WSW,247,8.0,11.0,84,-99.99,,,-99.99,0.000000,,2013-01-28 14:42:00,
2013-01-28 07:52:00,23.0,19.0,-100.00,WSW,252,8.0,10.0,85,-99.99,,,-99.99,0.100000,,2013-01-28 14:52:00,
2013-01-28 08:02:00,23.0,19.0,-100.00,WSW,256,8.0,11.0,84,-99.99,,,-99.99,1.000000,,2013-01-28 15:02:00,
2013-01-28 08:11:00,22.0,19.0,-100.00,WSW,258,9.0,12.0,85,-99.99,,,-99.99,2.700000,,2013-01-28 15:11:00,
2013-01-28 08:22:00,22.0,19.0,-100.00,WSW,252,7.0,9.0,85,-99.99,,,-99.99,5.800000,,2013-01-28 15:22:00,
2013-01-28 08:32:00,22.0,19.0,-100.00,WSW,251,7.0,11.0,85,-99.99,,,-99.99,11.300000,,2013-01-28 15:32:00,
2013-01-28 08:42:00,22.0,19.0,-100.00,WSW,254,6.0,9.0,85,-99.99,,,-99.99,21.100000,,2013-01-28 15:42:00,
2013-01-28 08:52:00,22.0,18.0,-100.00,West,265,10.0,12.0,85,-99.99,,,-99.99,32.000000,,2013-01-28 15:52:00,
2013-01-28 09:02:00,22.0,19.0,-100.00,West,277,9.0,11.0,86,-99.99,,,-99.99,42.200001,,2013-01-28 16:02:00,
2013-01-28 09:11:00,22.0,18.0,-100.00,West,273,10.0,12.0,86,-99.99,,,-99.99,50.799999,,2013-01-28 16:11:00,
2013-01-28 09:21:00,22.0,18.0,-100.00,West,273,9.0,12.0,87,-99.99,,,-99.99,61.299999,,2013-01-28 16:21:00,
2013-01-28 09:32:00,22.0,19.0,-100.00,West,273,5.0,8.0,87,-99.99,,,-99.99,75.199997,,2013-01-28 16:32:00,
2013-01-28 09:42:00,22.0,19.0,-100.00,West,276,6.0,8.0,87,-99.99,,,-99.99,111.300003,,2013-01-28 16:42:00,
2013-01-28 09:52:00,22.0,19.0,-100.00,West,262,6.0,8.0,86,-99.99,,,-99.99,125.599998,,2013-01-28 16:52:00,
2013-01-28 10:01:00,22.0,19.0,-100.00,WSW,246,7.0,10.0,85,-99.99,,,-99.99,127.900002,,2013-01-28 17:01:00,
2013-01-28 10:11:00,23.0,19.0,-100.00,WSW,241,7.0,9.0,85,-99.99,,,-99.99,131.399994,,2013-01-28 17:11:00,
2013-01-28 10:22:00,23.0,19.0,-100.00,SW,235,7.0,9.0,84,-99.99,,,-99.99,139.699997,,2013-01-28 17:22:00,
2013-01-28 10:32:00,23.0,19.0,-100.00,SW,215,9.0,12.0,85,-99.99,,,-99.99,159.800003,,2013-01-28 17:32:00,
2013-01-28 10:41:00,23.0,19.0,-100.00,SW,215,9.0,13.0,85,-99.99,,,-99.99,164.399994,,2013-01-28 17:41:00,
2013-01-28 10:52:00,23.0,19.0,-100.00,SW,220,9.0,12.0,84,-99.99,,,-99.99,170.100006,,2013-01-28 17:52:00,
2013-01-28 11:01:00,22.0,19.0,-100.00,SW,222,11.0,16.0,84,-99.99,,,-99.99,208.000000,,2013-01-28 18:01:00,
2013-01-28 11:11:00,22.0,18.0,-100.00,SW,226,10.0,15.0,83,-99.99,,,-99.99,242.800003,,2013-01-28 18:11:00,
2013-01-28 11:22:00,22.0,18.0,-100.00,SW,233,7.0,10.0,85,-99.99,,,-99.99,344.500000,,2013-01-28 18:22:00,
2013-01-28 11:33:00,21.0,17.0,-100.00,WSW,240,9.0,12.0,84,-99.99,,,-99.99,453.899994,,2013-01-28 18:33:00,
2013-01-28 11:42:00,21.0,18.0,-100.00,WSW,240,9.0,13.0,86,-99.99,,,-99.99,512.700012,,2013-01-28 18:42:00,
2013-01-28 11:51:00,21.0,18.0,-100.00,SW,225,8.0,11.0,87,-99.99,,,-99.99,543.200012,,2013-01-28 18:51:00,
2013-01-28 12:01:00,21.0,17.0,-100.00,SW,221,8.0,11.0,87,-99.99,,,-99.99,558.500000,,2013-01-28 19:01:00,
2013-01-28 12:11:00,20.0,17.0,-100.00,SW,218,9.0,12.0,86,-99.99,,,-99.99,563.500000,,2013-01-28 19:11:00,
2013-01-28 12:21:00,20.0,16.0,-100.00,WSW,257,8.0,12.0,84,-99.99,,,-99.99,487.399994,,2013-01-28 19:21:00,
2013-01-28 12:32:00,21.0,17.0,-100.00,WSW,249,8.0,11.0,84,-99.99,,,-99.99,520.200012,,2013-01-28 19:32:00,
2013-01-28 12:41:00,21.0,17.0,-100.00,WSW,255,9.0,11.0,84,-99.99,,,-99.99,522.700012,,2013-01-28 19:41:00,
2013-01-28 12:51:00,21.0,17.0,-100.00,WSW,253,8.0,11.0,85,-99.99,,,-99.99,525.200012,,2013-01-28 19:51:00,
2013-01-28 13:02:00,22.0,17.0,-100.00,WSW,246,10.0,13.0,82,-99.99,,,-99.99,522.500000,,2013-01-28 20:02:00,
2013-01-28 13:11:00,22.0,17.0,-100.00,WSW,242,11.0,15.0,80,-99.99,,,-99.99,520.200012,,2013-01-28 20:11:00,
2013-01-28 13:21:00,22.0,17.0,-100.00,WSW,241,10.0,14.0,80,-99.99,,,-99.99,518.599976,,2013-01-28 20:21:00,
2013-01-28 13:32:00,22.0,17.0,-100.00,SW,236,11.0,15.0,80,-99.99,,,-99.99,514.599976,,2013-01-28 20:32:00,
2013-01-28 13:42:00,23.0,17.0,-100.00,SW,220,10.0,14.0,79,-99.99,,,-99.99,512.599976,,2013-01-28 20:42:00,
2013-01-28 13:52:00,23.0,17.0,-100.00,SW,227,9.0,13.0,78,-99.99,,,-99.99,507.200012,,2013-01-28 20:52:00,
2013-01-28 14:02:00,23.0,17.0,-100.00,WSW,242,9.0,11.0,77,-99.99,,,-99.99,495.600006,,2013-01-28 21:02:00,
2013-01-28 14:11:00,23.0,17.0,-100.00,WSW,250,8.0,11.0,78,-99.99,,,-99.99,484.500000,,2013-01-28 21:11:00,
2013-01-28 14:21:00,24.0,17.0,-100.00,WSW,245,11.0,14.0,77,-99.99,,,-99.99,472.600006,,2013-01-28 21:21:00,
2013-01-28 14:33:00,24.0,18.0,-100.00,WSW,245,14.0,20.0,76,-99.99,,,-99.99,457.500000,,2013-01-28 21:33:00,
2013-01-28 14:42:00,24.0,18.0,-100.00,WSW,255,13.0,18.0,78,-99.99,,,-99.99,442.700012,,2013-01-28 21:42:00,
2013-01-28 14:52:00,25.0,19.0,-100.00,WSW,255,13.0,17.0,77,-99.99,,,-99.99,427.500000,,2013-01-28 21:52:00,
2013-01-28 15:01:00,25.0,19.0,-100.00,West,259,16.0,20.0,76,-99.99,,,-99.99,405.399994,,2013-01-28 22:01:00,
2013-01-28 15:11:00,25.0,19.0,-100.00,West,263,14.0,18.0,77,-99.99,,,-99.99,390.299988,,2013-01-28 22:11:00,
2013-01-28 15:22:00,25.0,20.0,-100.00,West,262,10.0,12.0,78,-99.99,,,-99.99,371.399994,,2013-01-28 22:22:00,
2013-01-28 15:32:00,26.0,20.0,-100.00,WSW,258,9.0,12.0,77,-99.99,,,-99.99,428.500000,,2013-01-28 22:32:00,
2013-01-28 15:42:00,26.0,20.0,-100.00,West,259,10.0,13.0,77,-99.99,,,-99.99,278.899994,,2013-01-28 22:42:00,
2013-01-28 15:52:00,26.0,20.0,-100.00,West,262,9.0,10.0,78,-99.99,,,-99.99,308.200012,,2013-01-28 22:52:00,
2013-01-28 16:01:00,26.0,20.0,-100.00,WSW,241,7.0,10.0,78,-99.99,,,-99.99,188.500000,,2013-01-28 23:01:00,
2013-01-28 16:11:00,26.0,20.0,-100.00,SW,224,6.0,9.0,78,-99.99,,,-99.99,85.000000,,2013-01-28 23:11:00,
2013-01-28 16:21:00,25.0,20.0,-100.00,SW,224,5.0,7.0,79,-99.99,,,-99.99,193.600006,,2013-01-28 23:21:00,
2013-01-28 16:32:00,26.0,20.0,-100.00,SW,226,6.0,8.0,79,-99.99,,,-99.99,80.400002,,2013-01-28 23:32:00,
2013-01-28 16:41:00,26.0,21.0,-100.00,SSW,212,7.0,9.0,80,-99.99,,,-99.99,145.899994,,2013-01-28 23:41:00,
2013-01-28 16:52:00,26.0,21.0,-100.00,SW,215,7.0,10.0,80,-99.99,,,-99.99,104.199997,,2013-01-28 23:52:00,
2013-01-28 17:01:00,27.0,21.0,-100.00,SSW,213,8.0,12.0,79,-99.99,,,-99.99,140.199997,,2013-01-29 00:01:00,
2013-01-28 17:11:00,27.0,21.0,-100.00,WSW,240,9.0,12.0,77,-99.99,,,-99.99,86.599998,,2013-01-29 00:11:00,
2013-01-28 17:21:00,27.0,20.0,-100.00,SW,231,9.0,13.0,77,-99.99,,,-99.99,39.500000,,2013-01-29 00:21:00,
2013-01-28 17:32:00,26.0,20.0,-100.00,WSW,237,7.0,11.0,76,-99.99,,,-99.99,12.100000,,2013-01-29 00:32:00,
2013-01-28 17:41:00,26.0,20.0,-100.00,WSW,240,10.0,15.0,77,-99.99,,,-99.99,6.500000,,2013-01-29 00:41:00,
2013-01-28 17:51:00,26.0,20.0,-100.00,SW,236,10.0,14.0,77,-99.99,,,-99.99,3.500000,,2013-01-29 00:51:00,
2013-01-28 18:01:00,27.0,21.0,-100.00,SW,231,9.0,13.0,78,-99.99,,,-99.99,1.500000,,2013-01-29 01:01:00,
2013-01-28 18:11:00,27.0,21.0,-100.00,SW,225,10.0,14.0,78,-99.99,,,-99.99,0.300000,,2013-01-29 01:11:00,
2013-01-28 18:22:00,27.0,21.0,-100.00,SW,224,9.0,12.0,78,-99.99,,,-99.99,0.000000,,2013-01-29 01:22:00,
2013-01-28 18:31:00,26.0,21.0,-100.00,SW,214,9.0,12.0,80,-99.99,,,-99.99,-0.100000,,2013-01-29 01:31:00,
2013-01-28 18:41:00,26.0,21.0,-100.00,SW,216,9.0,11.0,80,-99.99,,,-99.99,-0.100000,,2013-01-29 01:41:00,
2013-01-28 18:52:00,26.0,22.0,-100.00,SSW,211,8.0,10.0,81,-99.99,,,-99.99,-0.100000,,2013-01-29 01:52:00,
2013-01-28 19:01:00,26.0,22.0,-100.00,SSW,195,9.0,11.0,84,-99.99,,,-99.99,-0.100000,,2013-01-29 02:01:00,
2013-01-28 19:11:00,26.0,22.0,-100.00,SSW,200,9.0,12.0,84,-99.99,,,-99.99,0.000000,,2013-01-29 02:11:00,
2013-01-28 19:21:00,26.0,22.0,-100.00,SSW,196,11.0,12.0,82,-99.99,,,-99.99,-0.100000,,2013-01-29 02:21:00,
2013-01-28 19:32:00,26.0,22.0,-100.00,SSW,204,8.0,11.0,83,-99.99,,,-99.99,-0.100000,,2013-01-29 02:32:00,
2013-01-28 19:41:00,26.0,21.0,-100.00,SSW,207,8.0,11.0,81,-99.99,,,-99.99,0.000000,,2013-01-29 02:41:00,
2013-01-28 19:52:00,26.0,21.0,-100.00,SSW,211,10.0,14.0,81,-99.99,,,-99.99,-0.100000,,2013-01-29 02:52:00,
2013-01-28 20:02:00,25.0,21.0,-100.00,SSW,208,10.0,14.0,82,-99.99,,,-99.99,0.000000,,2013-01-29 03:02:00,
2013-01-28 20:11:00,25.0,21.0,-100.00,SSW,213,9.0,13.0,82,-99.99,,,-99.99,-0.100000,,2013-01-29 03:11:00,
2013-01-28 20:21:00,25.0,21.0,-100.00,SW,223,9.0,14.0,83,-99.99,,,-99.99,-0.100000,,2013-01-29 03:21:00,
2013-01-28 20:31:00,26.0,22.0,-100.00,SW,219,10.0,15.0,84,-99.99,,,-99.99,-0.100000,,2013-01-29 03:31:00,
2013-01-28 20:41:00,26.0,22.0,-100.00,SW,215,11.0,14.0,85,-99.99,,,-99.99,-0.100000,,2013-01-29 03:41:00,
2013-01-28 20:52:00,26.0,23.0,-100.00,SW,214,11.0,14.0,86,-99.99,,,-99.99,-0.100000,,2013-01-29 03:52:00,
2013-01-28 21:01:00,26.0,23.0,-100.00,SSW,212,12.0,16.0,88,-99.99,,,-99.99,-0.100000,,2013-01-29 04:01:00,
2013-01-28 21:11:00,26.0,23.0,-100.00,SW,216,11.0,15.0,87,-99.99,,,-99.99,-0.100000,,2013-01-29 04:11:00,
2013-01-28 21:21:00,26.0,23.0,-100.00,SW,215,12.0,16.0,87,-99.99,,,-99.99,-0.100000,,2013-01-29 04:21:00,
2013-01-28 21:31:00,26.0,22.0,-100.00,SSW,207,13.0,18.0,87,-99.99,,,-99.99,0.000000,,2013-01-29 04:31:00,
2013-01-28 21:41:00,26.0,23.0,-100.00,SSW,205,11.0,14.0,87,-99.99,,,-99.99,0.000000,,2013-01-29 04:41:00,
2013-01-28 21:51:00,26.0,22.0,-100.00,SSW,213,12.0,15.0,87,-99.99,,,-99.99,-0.100000,,2013-01-29 04:51:00,
2013-01-28 22:03:00,26.0,23.0,-100.00,SW,219,12.0,17.0,88,-99.99,,,-99.99,-0.100000,,2013-01-29 05:03:00,
2013-01-28 22:12:00,26.0,23.0,-100.00,SW,226,13.0,18.0,87,-99.99,,,-99.99,0.000000,,2013-01-29 05:12:00,
2013-01-28 22:21:00,26.0,22.0,-100.00,SW,222,14.0,19.0,86,-99.99,,,-99.99,-0.100000,,2013-01-29 05:21:00,
2013-01-28 22:31:00,26.0,22.0,-100.00,SW,224,12.0,17.0,86,-99.99,,,-99.99,-0.100000,,2013-01-29 05:31:00,
2013-01-28 22:42:00,26.0,23.0,-100.00,SW,225,12.0,17.0,88,-99.99,,,-99.99,0.000000,,2013-01-29 05:42:00,
2013-01-28 22:52:00,26.0,23.0,-100.00,SW,223,12.0,15.0,88,-99.99,,,-99.99,-0.100000,,2013-01-29 05:52:00,
2013-01-28 23:01:00,26.0,23.0,-100.00,SW,222,12.0,18.0,88,-99.99,,,-99.99,-0.100000,,2013-01-29 06:01:00,
2013-01-28 23:11:00,26.0,23.0,-100.00,SW,224,12.0,16.0,87,-99.99,,,-99.99,-0.100000,,2013-01-29 06:11:00,
2013-01-28 23:21:00,26.0,23.0,-100.00,SW,233,9.0,13.0,87,-99.99,,,-99.99,-0.100000,,2013-01-29 06:21:00,
2013-01-28 23:31:00,26.0,23.0,-100.00,WSW,239,10.0,15.0,86,-99.99,,,-99.99,-0.100000,,2013-01-29 06:31:00,
2013-01-28 23:41:00,26.0,22.0,-100.00,SW,223,10.0,14.0,85,-99.99,,,-99.99,-0.100000,,2013-01-29 06:41:00,
2013-01-28 23:52:00,26.0,23.0,-100.00,SW,216,12.0,16.0,87,-99.99,,,-99.99,-0.100000,,2013-01-29 06:52:00,